Time,TemperatureF,DewpointF,PressureIn,WindDirection,WindDirectionDegrees,WindSpeedMPH,WindSpeedGustMPH,Humidity,HourlyPrecipIn,Conditions,Clouds,dailyrainin,SoftwareType,DateUTC
2013-03-21 00:00:00,32.0,31.2,29.73,North,0,8.0,27.0,97,0.00,,,0.00,Weather View 32 v70,2013-03-21 04:00:00,
2013-03-21 00:05:00,32.0,31.2,29.73,NNE,22,13.0,27.0,97,0.00,,,0.00,Weather View 32 v70,2013-03-21 04:05:00,
2013-03-21 00:10:00,31.0,30.5,29.73,NNE,22,14.0,27.0,98,0.00,,,0.00,Weather View 32 v70,2013-03-21 04:10:00,
2013-03-21 00:15:00,31.0,30.5,29.73,North,0,16.0,27.0,98,0.00,,,0.00,Weather View 32 v70,2013-03-21 04:15:00,
2013-03-21 00:20:00,31.0,30.8,29.73,NNW,338,7.0,26.0,99,0.00,,,0.00,Weather View 32 v70,2013-03-21 04:20:00,
2013-03-21 00:25:00,30.0,29.8,29.73,North,0,7.0,25.0,99,0.00,,,0.00,Weather View 32 v70,2013-03-21 04:25:00,
2013-03-21 00:30:00,30.0,29.8,29.73,NNW,338,11.0,25.0,99,0.00,,,0.00,Weather View 32 v70,2013-03-21 04:30:00,
2013-03-21 00:35:00,30.0,30.0,29.73,NNE,22,10.0,24.0,100,0.00,,,0.00,Weather View 32 v70,2013-03-21 04:35:00,
2013-03-21 00:40:00,29.0,29.0,29.73,NW,315,6.0,24.0,100,0.00,,,0.00,Weather View 32 v70,2013-03-21 04:40:00,
2013-03-21 00:45:00,29.0,29.0,29.73,NNE,22,8.0,24.0,100,0.00,,,0.00,Weather View 32 v70,2013-03-21 04:45:00,
2013-03-21 00:50:00,29.0,29.0,29.72,NW,315,13.0,24.0,100,0.00,,,0.00,Weather View 32 v70,2013-03-21 04:50:00,
2013-03-21 00:55:00,29.0,29.0,29.72,NW,315,7.0,24.0,100,0.00,,,0.00,Weather View 32 v70,2013-03-21 04:55:00,
2013-03-21 01:00:00,29.0,29.0,29.71,North,0,13.0,24.0,100,0.00,,,0.00,Weather View 32 v70,2013-03-21 05:00:00,
2013-03-21 01:05:00,29.0,29.0,29.71,North,0,9.0,24.0,100,0.00,,,0.00,Weather View 32 v70,2013-03-21 05:05:00,
2013-03-21 01:10:00,29.0,29.0,29.71,NNW,338,12.0,24.0,100,0.00,,,0.00,Weather View 32 v70,2013-03-21 05:10:00,
2013-03-21 01:15:00,28.0,28.0,29.70,North,0,10.0,21.0,100,0.00,,,0.00,Weather View 32 v70,2013-03-21 05:15:00,
2013-03-21 01:20:00,28.0,28.0,29.70,North,0,15.0,21.0,100,0.00,,,0.00,Weather View 32 v70,2013-03-21 05:20:00,
2013-03-21 01:25:00,28.0,28.0,29.70,NNE,22,10.0,21.0,100,0.00,,,0.00,Weather View 32 v70,2013-03-21 05:25:00,
2013-03-21 01:30:00,28.0,28.0,29.70,NNE,22,12.0,21.0,100,0.00,,,0.00,Weather View 32 v70,2013-03-21 05:30:00,
2013-03-21 01:35:00,28.0,28.0,29.70,North,0,13.0,16.0,100,0.00,,,0.00,Weather View 32 v70,2013-03-21 05:35:00,
2013-03-21 01:40:00,28.0,28.0,29.69,NNW,338,11.0,18.0,100,0.00,,,0.00,Weather View 32 v70,2013-03-21 05:40:00,
2013-03-21 01:45:00,28.0,28.0,29.69,NNW,338,10.0,18.0,100,0.00,,,0.00,Weather View 32 v70,2013-03-21 05:45:00,
2013-03-21 01:50:00,28.0,28.0,29.69,NNW,338,7.0,18.0,100,0.00,,,0.00,Weather View 32 v70,2013-03-21 05:50:00,
2013-03-21 01:55:00,27.0,27.0,29.69,North,0,8.0,18.0,100,0.00,,,0.00,Weather View 32 v70,2013-03-21 05:55:00,
2013-03-21 02:00:00,27.0,27.0,29.68,NW,315,6.0,18.0,100,0.00,,,0.00,Weather View 32 v70,2013-03-21 06:00:00,
2013-03-21 02:05:00,27.0,27.0,29.68,North,0,12.0,18.0,100,0.00,,,0.00,Weather View 32 v70,2013-03-21 06:05:00,
2013-03-21 02:10:00,27.0,27.0,29.68,NNW,338,8.0,18.0,100,0.00,,,0.00,Weather View 32 v70,2013-03-21 06:10:00,
2013-03-21 02:15:00,27.0,27.0,29.67,North,0,11.0,18.0,100,0.00,,,0.00,Weather View 32 v70,2013-03-21 06:15:00,
2013-03-21 02:20:00,27.0,27.0,29.67,North,0,11.0,18.0,100,0.00,,,0.00,Weather View 32 v70,2013-03-21 06:20:00,
2013-03-21 02:25:00,27.0,27.0,29.67,North,0,11.0,18.0,100,0.00,,,0.00,Weather View 32 v70,2013-03-21 06:25:00,
2013-03-21 02:30:00,27.0,27.0,29.66,North,0,9.0,18.0,100,0.00,,,0.00,Weather View 32 v70,2013-03-21 06:30:00,
2013-03-21 02:35:00,27.0,27.0,29.66,NNE,22,9.0,18.0,100,0.00,,,0.00,Weather View 32 v70,2013-03-21 06:35:00,
2013-03-21 02:40:00,27.0,27.0,29.66,NNE,22,10.0,18.0,100,0.00,,,0.00,Weather View 32 v70,2013-03-21 06:40:00,
2013-03-21 02:45:00,27.0,27.0,29.66,North,0,12.0,18.0,100,0.00,,,0.00,Weather View 32 v70,2013-03-21 06:45:00,
2013-03-21 02:50:00,27.0,27.0,29.66,NNE,22,10.0,18.0,100,0.00,,,0.00,Weather View 32 v70,2013-03-21 06:50:00,
2013-03-21 02:55:00,27.0,27.0,29.66,NNE,22,11.0,18.0,100,0.00,,,0.00,Weather View 32 v70,2013-03-21 06:55:00,
2013-03-21 03:00:00,27.0,27.0,29.65,North,0,11.0,18.0,100,0.00,,,0.00,Weather View 32 v70,2013-03-21 07:00:00,
2013-03-21 03:05:00,27.0,27.0,29.65,North,0,10.0,18.0,100,0.00,,,0.00,Weather View 32 v70,2013-03-21 07:05:00,
2013-03-21 03:10:00,27.0,27.0,29.65,North,0,12.0,22.0,100,0.00,,,0.00,Weather View 32 v70,2013-03-21 07:10:00,
2013-03-21 03:15:00,27.0,27.0,29.66,NNE,22,7.0,22.0,100,0.00,,,0.00,Weather View 32 v70,2013-03-21 07:15:00,
2013-03-21 03:20:00,26.0,26.0,29.66,NNW,338,6.0,22.0,100,0.00,,,0.00,Weather View 32 v70,2013-03-21 07:20:00,
2013-03-21 03:26:00,26.0,26.0,29.66,North,0,5.0,22.0,100,0.00,,,0.00,Weather View 32 v70,2013-03-21 07:26:00,
2013-03-21 03:31:00,26.0,26.0,29.66,NNW,338,3.0,22.0,100,0.00,,,0.00,Weather View 32 v70,2013-03-21 07:31:00,
2013-03-21 03:35:00,26.0,26.0,29.65,West,270,7.0,22.0,100,0.00,,,0.00,Weather View 32 v70,2013-03-21 07:35:00,
2013-03-21 03:41:00,26.0,26.0,29.65,NNW,338,3.0,22.0,100,0.00,,,0.00,Weather View 32 v70,2013-03-21 07:41:00,
2013-03-21 03:46:00,26.0,26.0,29.65,North,0,8.0,22.0,100,0.00,,,0.00,Weather View 32 v70,2013-03-21 07:46:00,
2013-03-21 03:51:00,26.0,26.0,29.64,NNE,22,10.0,22.0,100,0.00,,,0.00,Weather View 32 v70,2013-03-21 07:51:00,
2013-03-21 03:56:00,26.0,26.0,29.64,NNW,338,5.0,22.0,100,0.00,,,0.00,Weather View 32 v70,2013-03-21 07:56:00,
2013-03-21 04:01:00,25.0,25.0,29.64,NNE,22,9.0,22.0,100,0.00,,,0.00,Weather View 32 v70,2013-03-21 08:01:00,
2013-03-21 04:06:00,25.0,25.0,29.64,NE,45,8.0,22.0,100,0.00,,,0.00,Weather View 32 v70,2013-03-21 08:06:00,
2013-03-21 04:11:00,25.0,25.0,29.64,NNE,22,6.0,19.0,100,0.00,,,0.00,Weather View 32 v70,2013-03-21 08:11:00,
2013-03-21 04:16:00,25.0,25.0,29.64,NE,45,2.0,15.0,100,0.00,,,0.00,Weather View 32 v70,2013-03-21 08:16:00,
2013-03-21 04:21:00,25.0,25.0,29.64,NNE,22,6.0,15.0,100,0.00,,,0.00,Weather View 32 v70,2013-03-21 08:21:00,
2013-03-21 04:26:00,25.0,25.0,29.64,ESE,112,1.0,15.0,100,0.00,,,0.00,Weather View 32 v70,2013-03-21 08:26:00,
2013-03-21 04:31:00,25.0,25.0,29.64,NE,45,3.0,15.0,100,0.00,,,0.00,Weather View 32 v70,2013-03-21 08:31:00,
2013-03-21 04:37:00,24.0,24.0,29.64,WNW,292,5.0,15.0,100,0.00,,,0.00,Weather View 32 v70,2013-03-21 08:37:00,
2013-03-21 04:42:00,24.0,24.0,29.64,North,0,3.0,15.0,100,0.00,,,0.00,Weather View 32 v70,2013-03-21 08:42:00,
2013-03-21 04:47:00,24.0,24.0,29.64,NNE,22,5.0,15.0,100,0.00,,,0.00,Weather View 32 v70,2013-03-21 08:47:00,
2013-03-21 04:52:00,24.0,24.0,29.64,NE,45,6.0,15.0,100,0.00,,,0.00,Weather View 32 v70,2013-03-21 08:52:00,
2013-03-21 04:57:00,24.0,24.0,29.64,North,0,4.0,15.0,100,0.00,,,0.00,Weather View 32 v70,2013-03-21 08:57:00,
2013-03-21 05:02:00,23.0,23.0,29.63,NE,45,7.0,15.0,100,0.00,,,0.00,Weather View 32 v70,2013-03-21 09:02:00,
2013-03-21 05:07:00,23.0,23.0,29.63,NNE,22,4.0,11.0,100,0.00,,,0.00,Weather View 32 v70,2013-03-21 09:07:00,
2013-03-21 05:12:00,23.0,23.0,29.63,NNE,22,8.0,11.0,100,0.00,,,0.00,Weather View 32 v70,2013-03-21 09:12:00,
2013-03-21 05:17:00,23.0,23.0,29.63,ESE,112,1.0,11.0,100,0.00,,,0.00,Weather View 32 v70,2013-03-21 09:17:00,
2013-03-21 05:22:00,23.0,23.0,29.63,North,0,5.0,11.0,100,0.00,,,0.00,Weather View 32 v70,2013-03-21 09:22:00,
2013-03-21 05:27:00,22.0,21.8,29.64,NNE,22,8.0,11.0,99,0.00,,,0.00,Weather View 32 v70,2013-03-21 09:27:00,
2013-03-21 05:32:00,22.0,21.8,29.63,NNE,22,5.0,14.0,99,0.00,,,0.00,Weather View 32 v70,2013-03-21 09:32:00,
2013-03-21 05:37:00,22.0,21.8,29.64,NNE,22,6.0,14.0,99,0.00,,,0.00,Weather View 32 v70,2013-03-21 09:37:00,
2013-03-21 05:42:00,22.0,21.8,29.64,NW,315,6.0,14.0,99,0.00,,,0.00,Weather View 32 v70,2013-03-21 09:42:00,
2013-03-21 05:47:00,21.0,20.8,29.63,NNE,22,5.0,14.0,99,0.00,,,0.00,Weather View 32 v70,2013-03-21 09:47:00,
2013-03-21 05:52:00,21.0,20.8,29.64,NNW,338,6.0,14.0,99,0.00,,,0.00,Weather View 32 v70,2013-03-21 09:52:00,
2013-03-21 05:57:00,21.0,20.5,29.64,North,0,6.0,14.0,98,0.00,,,0.00,Weather View 32 v70,2013-03-21 09:57:00,
2013-03-21 06:02:00,21.0,20.5,29.64,North,0,11.0,14.0,98,0.00,,,0.00,Weather View 32 v70,2013-03-21 10:02:00,
2013-03-21 06:07:00,21.0,20.3,29.64,NNE,22,8.0,14.0,97,0.00,,,0.00,Weather View 32 v70,2013-03-21 10:07:00,
2013-03-21 06:12:00,21.0,20.3,29.65,NW,315,9.0,14.0,97,0.00,,,0.00,Weather View 32 v70,2013-03-21 10:12:00,
2013-03-21 06:17:00,21.0,20.0,29.65,NNE,22,9.0,14.0,96,0.00,,,0.00,Weather View 32 v70,2013-03-21 10:17:00,
2013-03-21 06:22:00,21.0,19.8,29.65,NE,45,12.0,14.0,95,0.00,,,0.00,Weather View 32 v70,2013-03-21 10:22:00,
2013-03-21 06:27:00,21.0,19.8,29.66,NW,315,8.0,14.0,95,0.00,,,0.00,Weather View 32 v70,2013-03-21 10:27:00,
2013-03-21 06:32:00,21.0,19.8,29.65,NNE,22,8.0,13.0,95,0.00,,,0.00,Weather View 32 v70,2013-03-21 10:32:00,
2013-03-21 06:37:00,21.0,19.5,29.65,North,0,6.0,13.0,94,0.00,,,0.00,Weather View 32 v70,2013-03-21 10:37:00,
2013-03-21 06:42:00,21.0,19.3,29.65,NNE,22,11.0,14.0,93,0.00,,,0.00,Weather View 32 v70,2013-03-21 10:42:00,
2013-03-21 06:47:00,21.0,19.3,29.65,North,0,6.0,15.0,93,0.00,,,0.00,Weather View 32 v70,2013-03-21 10:47:00,
2013-03-21 06:52:00,21.0,19.3,29.66,NW,315,5.0,15.0,93,0.00,,,0.00,Weather View 32 v70,2013-03-21 10:52:00,
2013-03-21 06:57:00,20.0,18.1,29.66,North,0,9.0,15.0,92,0.00,,,0.00,Weather View 32 v70,2013-03-21 10:57:00,
2013-03-21 07:02:00,20.0,18.1,29.66,NNE,22,8.0,15.0,92,0.00,,,0.00,Weather View 32 v70,2013-03-21 11:02:00,
2013-03-21 07:07:00,20.0,18.1,29.66,NE,45,8.0,15.0,92,0.00,,,0.00,Weather View 32 v70,2013-03-21 11:07:00,
2013-03-21 07:12:00,20.0,18.1,29.66,NNE,22,5.0,15.0,92,0.00,,,0.00,Weather View 32 v70,2013-03-21 11:12:00,
2013-03-21 07:17:00,20.0,18.1,29.66,NW,315,4.0,15.0,92,0.00,,,0.00,Weather View 32 v70,2013-03-21 11:17:00,
2013-03-21 07:22:00,20.0,18.1,29.66,NNE,22,7.0,15.0,92,0.00,,,0.00,Weather View 32 v70,2013-03-21 11:22:00,
2013-03-21 07:27:00,20.0,18.1,29.67,NNE,22,9.0,15.0,92,0.00,,,0.00,Weather View 32 v70,2013-03-21 11:27:00,
2013-03-21 07:32:00,19.0,17.1,29.67,North,0,6.0,15.0,92,0.00,,,0.00,Weather View 32 v70,2013-03-21 11:32:00,
2013-03-21 07:37:00,19.0,17.1,29.66,NE,45,8.0,15.0,92,0.00,,,0.00,Weather View 32 v70,2013-03-21 11:37:00,
2013-03-21 07:42:00,19.0,17.1,29.67,North,0,6.0,15.0,92,0.00,,,0.00,Weather View 32 v70,2013-03-21 11:42:00,
2013-03-21 07:47:00,19.0,17.1,29.67,NNE,22,7.0,15.0,92,0.00,,,0.00,Weather View 32 v70,2013-03-21 11:47:00,
2013-03-21 07:52:00,19.0,17.1,29.67,NW,315,2.0,15.0,92,0.00,,,0.00,Weather View 32 v70,2013-03-21 11:52:00,
2013-03-21 07:58:00,19.0,17.1,29.67,North,0,5.0,14.0,92,0.00,,,0.00,Weather View 32 v70,2013-03-21 11:58:00,
2013-03-21 08:03:00,19.0,17.1,29.67,NNW,338,5.0,14.0,92,0.00,,,0.00,Weather View 32 v70,2013-03-21 12:03:00,
2013-03-21 08:08:00,19.0,17.1,29.67,WNW,292,6.0,14.0,92,0.00,,,0.00,Weather View 32 v70,2013-03-21 12:08:00,
2013-03-21 08:13:00,19.0,17.1,29.68,NNW,338,8.0,14.0,92,0.00,,,0.00,Weather View 32 v70,2013-03-21 12:13:00,
2013-03-21 08:18:00,19.0,17.1,29.68,NNW,338,6.0,14.0,92,0.00,,,0.00,Weather View 32 v70,2013-03-21 12:18:00,
2013-03-21 08:23:00,19.0,17.1,29.68,NNE,22,6.0,14.0,92,0.00,,,0.00,Weather View 32 v70,2013-03-21 12:23:00,
2013-03-21 08:28:00,19.0,17.1,29.68,North,0,5.0,14.0,92,0.00,,,0.00,Weather View 32 v70,2013-03-21 12:28:00,
2013-03-21 08:33:00,19.0,17.1,29.68,NNE,22,5.0,14.0,92,0.00,,,0.00,Weather View 32 v70,2013-03-21 12:33:00,
2013-03-21 08:38:00,19.0,16.8,29.68,WNW,292,6.0,14.0,91,0.00,,,0.00,Weather View 32 v70,2013-03-21 12:38:00,
2013-03-21 08:43:00,20.0,17.8,29.68,North,0,5.0,14.0,91,0.00,,,0.00,Weather View 32 v70,2013-03-21 12:43:00,
2013-03-21 08:48:00,20.0,17.8,29.68,ENE,68,6.0,14.0,91,0.00,,,0.00,Weather View 32 v70,2013-03-21 12:48:00,
2013-03-21 08:53:00,20.0,17.5,29.69,NNW,338,5.0,14.0,90,0.00,,,0.00,Weather View 32 v70,2013-03-21 12:53:00,
2013-03-21 08:58:00,20.0,17.8,29.68,NNE,22,10.0,13.0,91,0.00,,,0.00,Weather View 32 v70,2013-03-21 12:58:00,
2013-03-21 09:03:00,20.0,17.8,29.68,NNE,22,8.0,13.0,91,0.00,,,0.00,Weather View 32 v70,2013-03-21 13:03:00,
2013-03-21 09:08:00,20.0,17.8,29.68,North,0,7.0,13.0,91,0.00,,,0.00,Weather View 32 v70,2013-03-21 13:08:00,
2013-03-21 09:13:00,20.0,17.5,29.68,NNW,338,6.0,13.0,90,0.00,,,0.00,Weather View 32 v70,2013-03-21 13:13:00,
2013-03-21 09:18:00,21.0,18.5,29.68,North,0,10.0,13.0,90,0.00,,,0.00,Weather View 32 v70,2013-03-21 13:18:00,
2013-03-21 09:23:00,21.0,18.5,29.68,NNE,22,8.0,16.0,90,0.00,,,0.00,Weather View 32 v70,2013-03-21 13:23:00,
2013-03-21 09:28:00,21.0,18.5,29.68,NE,45,8.0,17.0,90,0.00,,,0.00,Weather View 32 v70,2013-03-21 13:28:00,
2013-03-21 09:33:00,21.0,18.3,29.68,NNE,22,8.0,17.0,89,0.00,,,0.00,Weather View 32 v70,2013-03-21 13:33:00,
2013-03-21 09:38:00,22.0,19.3,29.69,NW,315,7.0,17.0,89,0.00,,,0.00,Weather View 32 v70,2013-03-21 13:38:00,
2013-03-21 09:43:00,22.0,19.3,29.69,NNW,338,6.0,17.0,89,0.00,,,0.00,Weather View 32 v70,2013-03-21 13:43:00,
2013-03-21 09:48:00,22.0,19.0,29.69,North,0,6.0,17.0,88,0.00,,,0.00,Weather View 32 v70,2013-03-21 13:48:00,
2013-03-21 09:53:00,22.0,18.7,29.69,WNW,292,3.0,17.0,87,0.00,,,0.00,Weather View 32 v70,2013-03-21 13:53:00,
2013-03-21 09:58:00,22.0,18.2,29.70,NW,315,6.0,17.0,85,0.00,,,0.00,Weather View 32 v70,2013-03-21 13:58:00,
2013-03-21 10:03:00,22.0,17.9,29.70,WNW,292,7.0,17.0,84,0.00,,,0.00,Weather View 32 v70,2013-03-21 14:03:00,
2013-03-21 10:08:00,23.0,18.0,29.70,WNW,292,7.0,17.0,81,0.00,,,0.00,Weather View 32 v70,2013-03-21 14:08:00,
2013-03-21 10:13:00,23.0,18.0,29.70,NW,315,5.0,17.0,81,0.00,,,0.00,Weather View 32 v70,2013-03-21 14:13:00,
2013-03-21 10:18:00,23.0,18.0,29.70,NW,315,7.0,17.0,81,0.00,,,0.00,Weather View 32 v70,2013-03-21 14:18:00,
2013-03-21 10:23:00,23.0,18.3,29.70,NNE,22,6.0,17.0,82,0.00,,,0.00,Weather View 32 v70,2013-03-21 14:23:00,
2013-03-21 10:28:00,24.0,19.6,29.70,NNE,22,5.0,15.0,83,0.00,,,0.00,Weather View 32 v70,2013-03-21 14:28:00,
2013-03-21 10:33:00,24.0,19.3,29.70,NNE,22,7.0,14.0,82,0.00,,,0.00,Weather View 32 v70,2013-03-21 14:33:00,
2013-03-21 10:38:00,25.0,20.0,29.70,NW,315,5.0,14.0,81,0.00,,,0.00,Weather View 32 v70,2013-03-21 14:38:00,
2013-03-21 10:43:00,25.0,20.3,29.70,NNW,338,4.0,14.0,82,0.00,,,0.00,Weather View 32 v70,2013-03-21 14:43:00,
2013-03-21 10:48:00,26.0,21.3,29.70,NNE,22,8.0,14.0,82,0.00,,,0.00,Weather View 32 v70,2013-03-21 14:48:00,
2013-03-21 10:53:00,26.0,21.0,29.70,North,0,5.0,14.0,81,0.00,,,0.00,Weather View 32 v70,2013-03-21 14:53:00,
2013-03-21 10:58:00,26.0,21.0,29.70,North,0,7.0,14.0,81,0.00,,,0.00,Weather View 32 v70,2013-03-21 14:58:00,
2013-03-21 11:04:00,26.0,20.7,29.70,NNE,22,9.0,14.0,80,0.00,,,0.00,Weather View 32 v70,2013-03-21 15:04:00,
2013-03-21 11:09:00,26.0,20.7,29.70,NW,315,6.0,14.0,80,0.00,,,0.00,Weather View 32 v70,2013-03-21 15:09:00,
2013-03-21 11:14:00,27.0,21.7,29.70,North,0,8.0,14.0,80,0.00,,,0.00,Weather View 32 v70,2013-03-21 15:14:00,
2013-03-21 11:19:00,27.0,21.1,29.70,NNE,22,10.0,14.0,78,0.00,,,0.00,Weather View 32 v70,2013-03-21 15:19:00,
2013-03-21 11:24:00,27.0,21.4,29.70,NNE,22,9.0,14.0,79,0.00,,,0.00,Weather View 32 v70,2013-03-21 15:24:00,
2013-03-21 11:29:00,27.0,21.4,29.70,WNW,292,5.0,14.0,79,0.00,,,0.00,Weather View 32 v70,2013-03-21 15:29:00,
2013-03-21 11:34:00,27.0,21.1,29.70,NW,315,6.0,14.0,78,0.00,,,0.00,Weather View 32 v70,2013-03-21 15:34:00,
2013-03-21 11:39:00,27.0,20.8,29.70,NNE,22,8.0,14.0,77,0.00,,,0.00,Weather View 32 v70,2013-03-21 15:39:00,
2013-03-21 11:44:00,27.0,20.8,29.70,North,0,9.0,17.0,77,0.00,,,0.00,Weather View 32 v70,2013-03-21 15:44:00,
2013-03-21 11:49:00,28.0,21.7,29.70,North,0,8.0,17.0,77,0.00,,,0.00,Weather View 32 v70,2013-03-21 15:49:00,
2013-03-21 11:54:00,28.0,21.4,29.71,WNW,292,7.0,17.0,76,0.00,,,0.00,Weather View 32 v70,2013-03-21 15:54:00,
2013-03-21 11:59:00,29.0,23.0,29.71,North,0,11.0,17.0,78,0.00,,,0.00,Weather View 32 v70,2013-03-21 15:59:00,
2013-03-21 12:04:00,29.0,22.4,29.71,North,0,5.0,17.0,76,0.00,,,0.00,Weather View 32 v70,2013-03-21 16:04:00,
2013-03-21 12:09:00,29.0,22.1,29.71,NNW,338,8.0,17.0,75,0.00,,,0.00,Weather View 32 v70,2013-03-21 16:09:00,
2013-03-21 12:14:00,29.0,21.4,29.71,NE,45,3.0,17.0,73,0.00,,,0.00,Weather View 32 v70,2013-03-21 16:14:00,
2013-03-21 12:19:00,30.0,23.7,29.71,NNE,22,6.0,17.0,77,0.00,,,0.00,Weather View 32 v70,2013-03-21 16:19:00,
2013-03-21 12:24:00,30.0,23.0,29.71,NE,45,6.0,17.0,75,0.00,,,0.00,Weather View 32 v70,2013-03-21 16:24:00,
2013-03-21 12:29:00,30.0,22.7,29.71,NNE,22,10.0,18.0,74,0.00,,,0.00,Weather View 32 v70,2013-03-21 16:29:00,
2013-03-21 12:34:00,30.0,22.4,29.71,NE,45,6.0,18.0,73,0.00,,,0.00,Weather View 32 v70,2013-03-21 16:34:00,
2013-03-21 12:39:00,31.0,23.0,29.71,North,0,6.0,18.0,72,0.00,,,0.00,Weather View 32 v70,2013-03-21 16:39:00,
2013-03-21 12:44:00,31.0,23.4,29.71,NNE,22,6.0,18.0,73,0.00,,,0.00,Weather View 32 v70,2013-03-21 16:44:00,
2013-03-21 12:49:00,31.0,23.0,29.71,North,0,6.0,18.0,72,0.00,,,0.00,Weather View 32 v70,2013-03-21 16:49:00,
2013-03-21 12:54:00,32.0,23.7,29.71,North,0,8.0,18.0,71,0.00,,,0.00,Weather View 32 v70,2013-03-21 16:54:00,
2013-03-21 12:59:00,32.0,23.0,29.71,NNE,22,4.0,18.0,69,0.00,,,0.00,Weather View 32 v70,2013-03-21 16:59:00,
2013-03-21 13:04:00,32.0,22.6,29.70,NE,45,12.0,18.0,68,0.00,,,0.00,Weather View 32 v70,2013-03-21 17:04:00,
2013-03-21 13:09:00,32.0,22.6,29.71,NE,45,8.0,18.0,68,0.00,,,0.00,Weather View 32 v70,2013-03-21 17:09:00,
2013-03-21 13:14:00,32.0,21.9,29.70,NNE,22,7.0,18.0,66,0.00,,,0.00,Weather View 32 v70,2013-03-21 17:14:00,
2013-03-21 13:19:00,32.0,22.6,29.70,NNE,22,10.0,18.0,68,0.00,,,0.00,Weather View 32 v70,2013-03-21 17:19:00,
2013-03-21 13:24:00,32.0,21.9,29.70,North,0,6.0,18.0,66,0.00,,,0.00,Weather View 32 v70,2013-03-21 17:24:00,
2013-03-21 13:29:00,33.0,23.2,29.70,NW,315,6.0,18.0,67,0.00,,,0.00,Weather View 32 v70,2013-03-21 17:29:00,
2013-03-21 13:34:00,32.0,21.6,29.70,NNE,22,12.0,18.0,65,0.00,,,0.00,Weather View 32 v70,2013-03-21 17:34:00,
2013-03-21 13:39:00,33.0,23.9,29.69,East,90,6.0,18.0,69,0.00,,,0.00,Weather View 32 v70,2013-03-21 17:39:00,
2013-03-21 13:44:00,33.0,21.8,29.69,North,0,13.0,18.0,63,0.00,,,0.00,Weather View 32 v70,2013-03-21 17:44:00,
2013-03-21 13:49:00,33.0,21.8,29.69,NNW,338,8.0,18.0,63,0.00,,,0.00,Weather View 32 v70,2013-03-21 17:49:00,
2013-03-21 13:54:00,33.0,23.2,29.69,NNE,22,6.0,18.0,67,0.00,,,0.00,Weather View 32 v70,2013-03-21 17:54:00,
2013-03-21 13:59:00,34.0,22.7,29.69,NW,315,6.0,18.0,63,0.00,,,0.00,Weather View 32 v70,2013-03-21 17:59:00,
2013-03-21 14:04:00,34.0,22.7,29.69,North,0,10.0,16.0,63,0.00,,,0.00,Weather View 32 v70,2013-03-21 18:04:00,
2013-03-21 14:10:00,35.0,23.3,29.68,NNE,22,9.0,16.0,62,0.00,,,0.00,Weather View 32 v70,2013-03-21 18:10:00,
2013-03-21 14:15:00,35.0,22.9,29.68,North,0,6.0,17.0,61,0.00,,,0.00,Weather View 32 v70,2013-03-21 18:15:00,
2013-03-21 14:20:00,35.0,22.1,29.68,North,0,6.0,17.0,59,0.00,,,0.00,Weather View 32 v70,2013-03-21 18:20:00,
2013-03-21 14:25:00,35.0,21.7,29.68,North,0,14.0,19.0,58,0.00,,,0.00,Weather View 32 v70,2013-03-21 18:25:00,
2013-03-21 14:30:00,35.0,22.5,29.68,NNE,22,8.0,19.0,60,0.00,,,0.00,Weather View 32 v70,2013-03-21 18:30:00,
2013-03-21 14:35:00,35.0,21.3,29.68,NW,315,8.0,20.0,57,0.00,,,0.00,Weather View 32 v70,2013-03-21 18:35:00,
2013-03-21 14:40:00,35.0,22.1,29.67,NNE,22,13.0,20.0,59,0.00,,,0.00,Weather View 32 v70,2013-03-21 18:40:00,
2013-03-21 14:45:00,36.0,22.6,29.67,North,0,11.0,20.0,58,0.00,,,0.00,Weather View 32 v70,2013-03-21 18:45:00,
2013-03-21 14:50:00,35.0,21.3,29.67,NNE,22,13.0,20.0,57,0.00,,,0.00,Weather View 32 v70,2013-03-21 18:50:00,
2013-03-21 14:55:00,35.0,20.9,29.67,NNE,22,13.0,20.0,56,0.00,,,0.00,Weather View 32 v70,2013-03-21 18:55:00,
2013-03-21 15:00:00,36.0,21.8,29.67,NNW,338,8.0,23.0,56,0.00,,,0.00,Weather View 32 v70,2013-03-21 19:00:00,
2013-03-21 15:05:00,35.0,20.0,29.67,WNW,292,7.0,23.0,54,0.00,,,0.00,Weather View 32 v70,2013-03-21 19:05:00,
2013-03-21 15:10:00,36.0,20.1,29.67,NW,315,8.0,23.0,52,0.00,,,0.00,Weather View 32 v70,2013-03-21 19:10:00,
2013-03-21 15:15:00,36.0,21.0,29.67,NNE,22,14.0,23.0,54,0.00,,,0.00,Weather View 32 v70,2013-03-21 19:15:00,
2013-03-21 15:20:00,36.0,21.0,29.67,NE,45,21.0,23.0,54,0.00,,,0.00,Weather View 32 v70,2013-03-21 19:20:00,
2013-03-21 15:25:00,36.0,20.5,29.67,NNE,22,5.0,23.0,53,0.00,,,0.00,Weather View 32 v70,2013-03-21 19:25:00,
2013-03-21 15:30:00,36.0,20.1,29.67,NNE,22,17.0,23.0,52,0.00,,,0.00,Weather View 32 v70,2013-03-21 19:30:00,
2013-03-21 15:35:00,36.0,20.5,29.68,NE,45,8.0,23.0,53,0.00,,,0.00,Weather View 32 v70,2013-03-21 19:35:00,
2013-03-21 15:40:00,36.0,19.6,29.68,North,0,11.0,23.0,51,0.00,,,0.00,Weather View 32 v70,2013-03-21 19:40:00,
2013-03-21 15:45:00,35.0,18.7,29.68,NNE,22,8.0,23.0,51,0.00,,,0.00,Weather View 32 v70,2013-03-21 19:45:00,
2013-03-21 15:50:00,35.0,18.2,29.68,NE,45,15.0,23.0,50,0.00,,,0.00,Weather View 32 v70,2013-03-21 19:50:00,
2013-03-21 15:55:00,35.0,19.1,29.68,NNE,22,11.0,23.0,52,0.00,,,0.00,Weather View 32 v70,2013-03-21 19:55:00,
2013-03-21 16:00:00,35.0,18.7,29.68,NNE,22,15.0,22.0,51,0.00,,,0.00,Weather View 32 v70,2013-03-21 20:00:00,
2013-03-21 16:05:00,35.0,18.7,29.68,North,0,11.0,22.0,51,0.00,,,0.00,Weather View 32 v70,2013-03-21 20:05:00,
2013-03-21 16:10:00,35.0,18.7,29.68,ENE,68,10.0,23.0,51,0.00,,,0.00,Weather View 32 v70,2013-03-21 20:10:00,
2013-03-21 16:15:00,35.0,18.7,29.68,NNE,22,16.0,23.0,51,0.00,,,0.00,Weather View 32 v70,2013-03-21 20:15:00,
2013-03-21 16:20:00,35.0,19.1,29.68,NNE,22,19.0,23.0,52,0.00,,,0.00,Weather View 32 v70,2013-03-21 20:20:00,
2013-03-21 16:25:00,34.0,17.3,29.69,North,0,4.0,23.0,50,0.00,,,0.00,Weather View 32 v70,2013-03-21 20:25:00,
2013-03-21 16:30:00,34.0,17.8,29.69,NNW,338,14.0,23.0,51,0.00,,,0.00,Weather View 32 v70,2013-03-21 20:30:00,
2013-03-21 16:35:00,34.0,17.8,29.69,North,0,11.0,23.0,51,0.00,,,0.00,Weather View 32 v70,2013-03-21 20:35:00,
2013-03-21 16:40:00,34.0,17.8,29.69,NNE,22,15.0,23.0,51,0.00,,,0.00,Weather View 32 v70,2013-03-21 20:40:00,
2013-03-21 16:45:00,34.0,17.8,29.69,North,0,12.0,23.0,51,0.00,,,0.00,Weather View 32 v70,2013-03-21 20:45:00,
2013-03-21 16:50:00,34.0,17.3,29.69,NNE,22,8.0,23.0,50,0.00,,,0.00,Weather View 32 v70,2013-03-21 20:50:00,
2013-03-21 16:55:00,34.0,17.3,29.69,North,0,15.0,23.0,50,0.00,,,0.00,Weather View 32 v70,2013-03-21 20:55:00,
2013-03-21 17:00:00,34.0,18.2,29.69,WNW,292,10.0,23.0,52,0.00,,,0.00,Weather View 32 v70,2013-03-21 21:00:00,
2013-03-21 17:05:00,34.0,17.8,29.69,NNW,338,8.0,23.0,51,0.00,,,0.00,Weather View 32 v70,2013-03-21 21:05:00,
2013-03-21 17:10:00,34.0,17.3,29.69,NNE,22,13.0,23.0,50,0.00,,,0.00,Weather View 32 v70,2013-03-21 21:10:00,
2013-03-21 17:15:00,34.0,17.8,29.69,NE,45,8.0,22.0,51,0.00,,,0.00,Weather View 32 v70,2013-03-21 21:15:00,
2013-03-21 17:20:00,34.0,17.8,29.69,North,0,10.0,22.0,51,0.00,,,0.00,Weather View 32 v70,2013-03-21 21:20:00,
2013-03-21 17:25:00,34.0,17.8,29.69,North,0,10.0,22.0,51,0.00,,,0.00,Weather View 32 v70,2013-03-21 21:25:00,
2013-03-21 17:30:00,34.0,17.3,29.69,North,0,13.0,22.0,50,0.00,,,0.00,Weather View 32 v70,2013-03-21 21:30:00,
2013-03-21 17:35:00,34.0,18.2,29.69,NNE,22,11.0,22.0,52,0.00,,,0.00,Weather View 32 v70,2013-03-21 21:35:00,
2013-03-21 17:40:00,34.0,17.3,29.69,NNE,22,8.0,22.0,50,0.00,,,0.00,Weather View 32 v70,2013-03-21 21:40:00,
2013-03-21 17:45:00,34.0,17.3,29.69,North,0,8.0,22.0,50,0.00,,,0.00,Weather View 32 v70,2013-03-21 21:45:00,
2013-03-21 17:50:00,34.0,17.3,29.69,NW,315,9.0,22.0,50,0.00,,,0.00,Weather View 32 v70,2013-03-21 21:50:00,
2013-03-21 17:55:00,34.0,16.8,29.69,NNW,338,5.0,22.0,49,0.00,,,0.00,Weather View 32 v70,2013-03-21 21:55:00,
2013-03-21 18:00:00,34.0,16.8,29.69,NNE,22,11.0,21.0,49,0.00,,,0.00,Weather View 32 v70,2013-03-21 22:00:00,
2013-03-21 18:05:00,34.0,17.3,29.70,NNW,338,14.0,21.0,50,0.00,,,0.00,Weather View 32 v70,2013-03-21 22:05:00,
2013-03-21 18:10:00,33.0,16.4,29.70,North,0,10.0,21.0,50,0.00,,,0.00,Weather View 32 v70,2013-03-21 22:10:00,
2013-03-21 18:15:00,33.0,16.4,29.70,North,0,16.0,23.0,50,0.00,,,0.00,Weather View 32 v70,2013-03-21 22:15:00,
2013-03-21 18:20:00,33.0,16.4,29.70,NNE,22,11.0,23.0,50,0.00,,,0.00,Weather View 32 v70,2013-03-21 22:20:00,
2013-03-21 18:25:00,33.0,16.4,29.71,NW,315,8.0,23.0,50,0.00,,,0.00,Weather View 32 v70,2013-03-21 22:25:00,
2013-03-21 18:30:00,33.0,16.8,29.71,NNW,338,8.0,23.0,51,0.00,,,0.00,Weather View 32 v70,2013-03-21 22:30:00,
2013-03-21 18:35:00,33.0,16.4,29.71,NE,45,8.0,23.0,50,0.00,,,0.00,Weather View 32 v70,2013-03-21 22:35:00,
2013-03-21 18:40:00,33.0,16.4,29.71,NNE,22,11.0,23.0,50,0.00,,,0.00,Weather View 32 v70,2013-03-21 22:40:00,
2013-03-21 18:45:00,33.0,16.4,29.71,NNE,22,10.0,23.0,50,0.00,,,0.00,Weather View 32 v70,2013-03-21 22:45:00,
2013-03-21 18:50:00,33.0,16.4,29.71,NW,315,6.0,23.0,50,0.00,,,0.00,Weather View 32 v70,2013-03-21 22:50:00,
2013-03-21 18:55:00,32.0,15.9,29.71,NNW,338,7.0,23.0,51,0.00,,,0.00,Weather View 32 v70,2013-03-21 22:55:00,
2013-03-21 19:00:00,32.0,16.8,29.71,North,0,11.0,23.0,53,0.00,,,0.00,Weather View 32 v70,2013-03-21 23:00:00,
2013-03-21 19:05:00,32.0,16.4,29.71,North,0,7.0,23.0,52,0.00,,,0.00,Weather View 32 v70,2013-03-21 23:05:00,
2013-03-21 19:10:00,32.0,16.4,29.71,North,0,9.0,23.0,52,0.00,,,0.00,Weather View 32 v70,2013-03-21 23:10:00,
2013-03-21 19:15:00,32.0,16.4,29.71,NW,315,10.0,19.0,52,0.00,,,0.00,Weather View 32 v70,2013-03-21 23:15:00,
2013-03-21 19:20:00,31.0,15.4,29.71,NNW,338,11.0,18.0,52,0.00,,,0.00,Weather View 32 v70,2013-03-21 23:20:00,
2013-03-21 19:25:00,31.0,15.9,29.72,NW,315,10.0,18.0,53,0.00,,,0.00,Weather View 32 v70,2013-03-21 23:25:00,
2013-03-21 19:30:00,31.0,15.4,29.72,North,0,6.0,18.0,52,0.00,,,0.00,Weather View 32 v70,2013-03-21 23:30:00,
2013-03-21 19:35:00,31.0,16.3,29.72,NNE,22,9.0,18.0,54,0.00,,,0.00,Weather View 32 v70,2013-03-21 23:35:00,
2013-03-21 19:41:00,31.0,16.3,29.72,NNW,338,10.0,18.0,54,0.00,,,0.00,Weather View 32 v70,2013-03-21 23:41:00,
2013-03-21 19:46:00,31.0,15.9,29.72,NNW,338,10.0,18.0,53,0.00,,,0.00,Weather View 32 v70,2013-03-21 23:46:00,
2013-03-21 19:51:00,31.0,15.9,29.73,NW,315,8.0,18.0,53,0.00,,,0.00,Weather View 32 v70,2013-03-21 23:51:00,
2013-03-21 19:56:00,31.0,15.9,29.73,NNW,338,6.0,18.0,53,0.00,,,0.00,Weather View 32 v70,2013-03-21 23:56:00,
2013-03-21 20:01:00,30.0,15.4,29.73,NW,315,9.0,18.0,54,0.00,,,0.00,Weather View 32 v70,2013-03-22 00:01:00,
2013-03-21 20:06:00,30.0,15.4,29.73,North,0,12.0,18.0,54,0.00,,,0.00,Weather View 32 v70,2013-03-22 00:06:00,
2013-03-21 20:11:00,30.0,15.4,29.73,NNW,338,8.0,18.0,54,0.00,,,0.00,Weather View 32 v70,2013-03-22 00:11:00,
2013-03-21 20:16:00,30.0,15.4,29.73,NW,315,8.0,18.0,54,0.00,,,0.00,Weather View 32 v70,2013-03-22 00:16:00,
2013-03-21 20:21:00,30.0,15.8,29.74,NNW,338,9.0,18.0,55,0.00,,,0.00,Weather View 32 v70,2013-03-22 00:21:00,
2013-03-21 20:26:00,30.0,15.4,29.74,NNW,338,6.0,18.0,54,0.00,,,0.00,Weather View 32 v70,2013-03-22 00:26:00,
2013-03-21 20:31:00,30.0,15.4,29.74,NNE,22,5.0,18.0,54,0.00,,,0.00,Weather View 32 v70,2013-03-22 00:31:00,
2013-03-21 20:36:00,30.0,16.2,29.74,North,0,8.0,18.0,56,0.00,,,0.00,Weather View 32 v70,2013-03-22 00:36:00,
2013-03-21 20:41:00,29.0,15.3,29.74,NNW,338,6.0,17.0,56,0.00,,,0.00,Weather View 32 v70,2013-03-22 00:41:00,
2013-03-21 20:46:00,29.0,15.3,29.74,NNW,338,6.0,17.0,56,0.00,,,0.00,Weather View 32 v70,2013-03-22 00:46:00,
2013-03-21 20:52:00,29.0,14.8,29.74,NW,315,8.0,17.0,55,0.00,,,0.00,Weather View 32 v70,2013-03-22 00:52:00,
2013-03-21 20:57:00,29.0,15.3,29.75,NW,315,7.0,17.0,56,0.00,,,0.00,Weather View 32 v70,2013-03-22 00:57:00,
2013-03-21 21:02:00,29.0,14.8,29.75,North,0,7.0,17.0,55,0.00,,,0.00,Weather View 32 v70,2013-03-22 01:02:00,
2013-03-21 21:07:00,29.0,14.8,29.75,NW,315,10.0,16.0,55,0.00,,,0.00,Weather View 32 v70,2013-03-22 01:07:00,
2013-03-21 21:12:00,29.0,15.3,29.75,NW,315,8.0,16.0,56,0.00,,,0.00,Weather View 32 v70,2013-03-22 01:12:00,
2013-03-21 21:17:00,29.0,16.1,29.75,NNW,338,6.0,16.0,58,0.00,,,0.00,Weather View 32 v70,2013-03-22 01:17:00,
2013-03-21 21:22:00,29.0,15.7,29.75,NNE,22,10.0,16.0,57,0.00,,,0.00,Weather View 32 v70,2013-03-22 01:22:00,
2013-03-21 21:27:00,29.0,15.7,29.75,North,0,6.0,16.0,57,0.00,,,0.00,Weather View 32 v70,2013-03-22 01:27:00,
2013-03-21 21:32:00,29.0,16.1,29.75,NNE,22,6.0,16.0,58,0.00,,,0.00,Weather View 32 v70,2013-03-22 01:32:00,
2013-03-21 21:37:00,29.0,16.1,29.76,NW,315,10.0,16.0,58,0.00,,,0.00,Weather View 32 v70,2013-03-22 01:37:00,
2013-03-21 21:42:00,29.0,15.7,29.76,NNW,338,8.0,16.0,57,0.00,,,0.00,Weather View 32 v70,2013-03-22 01:42:00,
2013-03-21 21:47:00,29.0,15.7,29.76,North,0,6.0,14.0,57,0.00,,,0.00,Weather View 32 v70,2013-03-22 01:47:00,
2013-03-21 21:52:00,29.0,16.1,29.76,NNW,338,7.0,14.0,58,0.00,,,0.00,Weather View 32 v70,2013-03-22 01:52:00,
2013-03-21 21:57:00,29.0,16.1,29.76,North,0,6.0,14.0,58,0.00,,,0.00,Weather View 32 v70,2013-03-22 01:57:00,
2013-03-21 22:02:00,28.0,15.5,29.76,North,0,6.0,14.0,59,0.00,,,0.00,Weather View 32 v70,2013-03-22 02:02:00,
2013-03-21 22:07:00,28.0,15.5,29.77,North,0,7.0,14.0,59,0.00,,,0.00,Weather View 32 v70,2013-03-22 02:07:00,
2013-03-21 22:12:00,28.0,15.5,29.77,NW,315,6.0,14.0,59,0.00,,,0.00,Weather View 32 v70,2013-03-22 02:12:00,
2013-03-21 22:17:00,28.0,15.5,29.77,WNW,292,6.0,14.0,59,0.00,,,0.00,Weather View 32 v70,2013-03-22 02:17:00,
2013-03-21 22:22:00,28.0,15.5,29.77,WNW,292,6.0,14.0,59,0.00,,,0.00,Weather View 32 v70,2013-03-22 02:22:00,
2013-03-21 22:27:00,28.0,15.5,29.77,WNW,292,9.0,14.0,59,0.00,,,0.00,Weather View 32 v70,2013-03-22 02:27:00,
2013-03-21 22:32:00,28.0,15.9,29.77,North,0,11.0,14.0,60,0.00,,,0.00,Weather View 32 v70,2013-03-22 02:32:00,
2013-03-21 22:37:00,28.0,15.9,29.77,North,0,6.0,14.0,60,0.00,,,0.00,Weather View 32 v70,2013-03-22 02:37:00,
2013-03-21 22:42:00,28.0,15.9,29.77,North,0,7.0,14.0,60,0.00,,,0.00,Weather View 32 v70,2013-03-22 02:42:00,
2013-03-21 22:47:00,28.0,16.3,29.77,NNW,338,11.0,14.0,61,0.00,,,0.00,Weather View 32 v70,2013-03-22 02:47:00,
2013-03-21 22:52:00,28.0,16.3,29.77,NNW,338,6.0,14.0,61,0.00,,,0.00,Weather View 32 v70,2013-03-22 02:52:00,
2013-03-21 22:58:00,28.0,15.9,29.78,NNE,22,8.0,14.0,60,0.00,,,0.00,Weather View 32 v70,2013-03-22 02:58:00,
2013-03-21 23:03:00,28.0,15.9,29.77,NNW,338,4.0,14.0,60,0.00,,,0.00,Weather View 32 v70,2013-03-22 03:03:00,
2013-03-21 23:08:00,27.0,15.3,29.77,NNE,22,6.0,14.0,61,0.00,,,0.00,Weather View 32 v70,2013-03-22 03:08:00,
2013-03-21 23:13:00,27.0,15.3,29.77,North,0,9.0,16.0,61,0.00,,,0.00,Weather View 32 v70,2013-03-22 03:13:00,
2013-03-21 23:18:00,27.0,15.3,29.77,North,0,6.0,16.0,61,0.00,,,0.00,Weather View 32 v70,2013-03-22 03:18:00,
2013-03-21 23:23:00,27.0,15.0,29.77,North,0,7.0,16.0,60,0.00,,,0.00,Weather View 32 v70,2013-03-22 03:23:00,
2013-03-21 23:28:00,27.0,15.0,29.78,NE,45,4.0,16.0,60,0.00,,,0.00,Weather View 32 v70,2013-03-22 03:28:00,
2013-03-21 23:33:00,27.0,15.0,29.78,NNE,22,3.0,16.0,60,0.00,,,0.00,Weather View 32 v70,2013-03-22 03:33:00,
2013-03-21 23:38:00,27.0,15.3,29.78,NNE,22,3.0,16.0,61,0.00,,,0.00,Weather View 32 v70,2013-03-22 03:38:00,
2013-03-21 23:43:00,27.0,15.3,29.78,NNE,22,5.0,16.0,61,0.00,,,0.00,Weather View 32 v70,2013-03-22 03:43:00,
2013-03-21 23:48:00,27.0,15.3,29.78,North,0,6.0,16.0,61,0.00,,,0.00,Weather View 32 v70,2013-03-22 03:48:00,
2013-03-21 23:50:00,27.0,15.3,29.78,NW,315,4.0,16.0,61,0.00,,,0.00,Weather View 32 v70,2013-03-22 03:50:00,